Location: G�kdere
(37.0328°N, 30.9000°E)
Time: 03:12:08
(UTC+00:00)

Cosmos 1844 Rocket - Pass Details

Date: 03 March 2021
Orbit: 826 x 843 km, 71.0° (Epoch: 22 April)

Event Time Altitude Azimuth Distance (km) Brightness Sun altitude
Rises 18:27:25 0° 327° (NNW) 3,368 6.5 -31.4°
Reaches altitude 10° 18:30:05 10° 317° (NW) 2,431 5.8 -31.9°
Maximum altitude 18:34:55 31° 257° (WSW) 1,401 4.2 -32.8°
Enters shadow 18:36:35 26° 225° (SW) 1,559 4.2 -33.1°
